This is the latest recevied weather packets stored in our database for station/object DL9SEC-13. If no packets are shown the sender has not sent any weather packets the latest 10 day(s).
| Time | Temp. | Humidity | Pressure | Rain* | Wind** | Luminosity | Snow |
|---|---|---|---|---|---|---|---|
| 1777485304 | 17.22° C | 26% | 1024.5 hPa | 0 mm | - | - | - |
| 1777484403 | 17.78° C | 26% | 1024.5 hPa | 0 mm | - | - | - |
| 1777483504 | 18.33° C | 24% | 1024.3 hPa | 0 mm | - | - | - |
| 1777482604 | 18.89° C | 24% | 1024.2 hPa | 0 mm | - | - | - |
| 1777481703 | 18.89° C | 24% | 1024.3 hPa | 0 mm | - | - | - |
| 1777480804 | 18.89° C | 24% | 1024.2 hPa | 0 mm | - | - | - |
| 1777479903 | 19.44° C | 23% | 1024 hPa | 0 mm | - | - | - |
| 1777479003 | 20° C | 23% | 1023.9 hPa | 0 mm | - | - | - |
| 1777478103 | 20° C | 23% | 1023.8 hPa | 0 mm | - | - | - |
| 1777477203 | 20° C | 25% | 1023.8 hPa | 0 mm | - | - | - |
| 1777476303 | 20° C | 26% | 1023.8 hPa | 0 mm | - | - | - |
| 1777475403 | 20.56° C | 28% | 1023.7 hPa | 0 mm | - | - | - |
| 1777474504 | 21.11° C | 26% | 1023.6 hPa | 0 mm | - | - | - |
| 1777473603 | 20.56° C | 29% | 1023.6 hPa | 0 mm | - | - | - |
| 1777472703 | 20.56° C | 29% | 1023.6 hPa | 0 mm | - | - | - |
| 1777471803 | 21.11° C | 28% | 1023.5 hPa | 0 mm | - | - | - |
| 1777470903 | 20.56° C | 30% | 1023.5 hPa | 0 mm | - | - | - |
| 1777470003 | 20° C | 30% | 1023.4 hPa | 0 mm | - | - | - |
| 1777469103 | 21.11° C | 31% | 1023.3 hPa | 0 mm | - | - | - |
| 1777468204 | 21.11° C | 31% | 1023.4 hPa | 0 mm | - | - | - |
| 1777467303 | 20.56° C | 28% | 1023.6 hPa | 0 mm | - | - | - |
| 1777466403 | 20.56° C | 31% | 1023.5 hPa | 0 mm | - | - | - |
| 1777465503 | 20.56° C | 32% | 1023.4 hPa | 0 mm | - | - | - |
| 1777464603 | 21.11° C | 29% | 1023.5 hPa | 0 mm | - | - | - |
| 1777463702 | 20.56° C | 31% | 1023.6 hPa | 0 mm | - | - | - |
* Rain latest hour (hover to see other rain measurements)
** Current wind speed in m/s (hover to see current wind gust speed)